SL-16 DEB, 22337

Orbit data source: Space-Track

SL-16 DEB, 22337 is space debris in LEO originally from a launch on Fri, 25 Dec 1992 UTC launched from the Tyuratam Missile And Space Complex (TTMTR). Debris objects in space refer to the collection of defunct objects orbiting the Earth. Examples of debris include non-operational satellites, rocket bodies, and fragments generated from explosions, collisions, or faulty payload assembly.

Loading next visibility...
Identifier
22337, 1992-093AA
Orbit
LEO
Country
Flag of CISCIS
Related business
Manufacturer
Unknown
Mission
Spacecraft
Bus & Motor
Unknown
Mass
Unknown
Launch date (UTC)
1992-12-25 (33 years ago)
Launch vehicle
Unknown
Launch site
Tyuratam Missile And Space Complex (TTMTR)
Object type
Payload
Rocket body
Debris
Shape & HBR
Unknown
Radar Cross Section
Medium (>0.1 m² and <1 m²)

Expand to show TLE details & history
Last TLE update: 16 hours ago

TLE from 16 hours ago
0 SL-16 DEB
1 22337U 92093AA  25258.36165657  .00000024  00000-0  54249-4 0  9995
2 22337  71.2896 139.2722 0149800 302.5357  56.1353 13.84526041651600
Epoch: 2025-09-15T08:40Z
TLE epoch observation values (Epoch: 2025-09-15T08:40:47.127Z)
Latitude
Longitude
14.50843°
Altitude
890.249 km
Speed
7.438 km/s
True Right ascension
09h 17m 05s
True Declination
0° 00' 00"
Sunlit
Object was in daylight at epoch
Visualization orbit readout
Latitude
Unknown
Longitude
Unknown
Altitude
Unknown
Speed
Unknown
Apparent Right ascension
Unknown
Apparent Declination
Unknown
Sunlit
N/A
Visualization observer readout
Local Sidereal Time
17:27:29
Azimuth
Unknown
Elevation
Unknown
Doppler factor
Unknown
Orbital elements
Apogee altitude
1,055.516 km
Perigee altitude
836.091 km
Semi-major axis
7,323.941 km
Eccentricity
0.01498
Inclination
71.2896°
RAAN
139.2722°
Arg. of periapsis
302.5357°
True anomaly
57.57554°
Mean anomaly
56.1353°
Eccentric anomaly
56.85393°
Mean motion
3.46279 °/min
Orbital period
103.96 mins
BSTAR
0.000054249
Loading maneuver chart data...
Computing Atmospheric mass density...
Loading historical data...
Loading historical data...
Loading historical data...
Loading historical data...
Loading historical data...
Loading historical data...
Loading historical data...

Documentation

Showing up to 5 results
|